Date,TemperatureHighF,TemperatureAvgF,TemperatureLowF,DewpointHighF,DewpointAvgF,DewpointLowF,HumidityHigh,HumidityAvg,HumidityLow,PressureMaxIn,PressureMinIn,WindSpeedMaxMPH,WindSpeedAvgMPH,GustSpeedMaxMPH,PrecipitationSumIn
2013-2-1,37.4,27.7,18.4,28.9,12.0,0.8,79,53,27,30.22,29.88,24,3,24,0.00
2013-2-2,36.4,25.9,16.4,31.8,20.3,8.2,100,81,37,30.21,29.94,8,0,8,0.01
2013-2-3,41.4,33.7,29.4,33.7,27.8,21.3,100,80,56,29.95,29.82,23,2,26,0.18
2013-2-4,47.7,34.2,24.5,30.4,24.5,17.3,90,69,39,30.03,29.89,15,1,16,0.00
2013-2-5,55.5,40.8,31.1,41.0,33.8,27.0,94,78,45,29.96,29.84,9,0,9,0.00
2013-2-6,59.7,43.6,33.2,37.6,30.8,23.5,100,67,28,30.13,29.95,13,1,13,0.00
2013-2-7,44.9,41.4,36.4,43.0,37.1,28.4,100,85,67,30.12,29.87,14,0,14,0.16
2013-2-8,49.2,41.2,33.0,45.6,38.1,27.6,100,89,61,30.06,29.82,20,2,24,0.03
2013-2-9,60.4,38.6,25.4,31.2,26.4,20.6,94,67,23,30.23,30.02,9,0,12,0.00
2013-2-10,48.2,41.9,35.6,47.5,32.5,22.9,100,71,38,30.28,30.05,16,2,18,0.92
2013-2-11,54.2,48.0,39.0,54.2,45.6,23.9,100,92,50,30.07,29.96,13,1,13,0.25
2013-2-12,52.0,42.5,35.8,40.8,32.3,24.1,100,70,37,30.03,29.80,8,0,9,0.08
2013-2-13,46.3,39.2,33.0,43.8,37.2,29.8,100,93,75,29.82,29.59,17,2,17,0.07
2013-2-14,54.2,36.7,25.6,33.5,29.4,24.7,100,78,40,29.97,29.81,13,1,13,0.00
2013-2-15,52.6,38.3,27.7,37.6,31.7,27.7,100,80,44,30.02,29.87,17,1,17,0.00
2013-2-16,35.1,28.5,19.5,31.7,21.3,10.4,90,75,50,29.91,29.76,23,2,24,0.00
2013-2-17,34.7,24.4,17.8,16.3,10.3,6.8,74,56,36,30.13,29.90,24,3,29,0.00
2013-2-18,51.9,33.6,19.2,28.1,21.9,14.9,94,65,38,30.23,30.07,13,1,14,0.00
2013-2-19,49.7,38.3,31.4,40.7,27.8,15.3,100,69,39,30.08,29.84,14,2,16,0.23
2013-2-20,36.7,29.6,27.3,16.9,9.8,0.3,61,44,22,30.04,29.96,19,3,20,0.00
2013-2-21,28.2,25.8,23.9,18.3,15.9,11.3,77,66,51,30.08,30.00,0,0,0,0.00